Alexandria, MN

10:27 AM CST on February 23, 2017 (GMT -0600)
Chandler

Weather History for KAXN - November, 2012

Change the Weather History Date:

Saturday, November 3, 2012

  Actual Average Record
Temperature  
Mean Temperature 34 °F -  
Max Temperature 36 °F 42 °F 72 °F (2008)
Min Temperature 33 °F 28 °F 3 °F (1991)
Degree Days  
Heating Degree Days 30    
Moisture  
Dew Point 28 °F    
Average Humidity 79    
Maximum Humidity 89    
Minimum Humidity 67    
Precipitation  
Precipitation 0.00 in - - ()
Sea Level Pressure  
Sea Level Pressure 30.23 in    
Wind  
Wind Speed 3 mph (SE)    
Max Wind Speed 7 mph    
Max Gust Speed -    
Visibility 10 miles    
Events Snow    
Averages and records for this station are not official NWS values.
T = Trace of Precipitation, MM = Missing Value Source: NWS Daily Summary

Daily Weather History Graph

Daily Weather History Graph

Search for Another Location

Airport or City:

Trip Planner

Search our weather history database for the weather conditions in past years. The results will help you decide how hot, cold, wet, or windy it might be!

Date:

Astronomy

Nov. 03, 2012 Rise Set
Actual Time 8:05 AM CDT 6:04 PM CDT
Civil Twilight 7:34 AM CDT 6:35 PM CDT
Nautical Twilight 6:58 AM CDT 7:10 PM CDT
Astronomical Twilight 6:23 AM CDT 7:45 PM CDT
Moon 9:41 PM CDT (11/3) 12:15 PM CDT (11/3)
Length of Visible Light 11h 01m
Length of Day
9h 58m
Waning Gibbous, 80% of the Moon is Illuminated
Nov 3
Waning Gibbous
Nov 6
Last Quarter
Nov 13
New
Nov 20
First Quarter
Nov 28
Full

Hourly Weather History & Observations

Time (CDT) Temp. Windchill Dew Point Humidity Pressure Visibility Wind Dir Wind Speed Gust Speed Precip Events Conditions
12:53 AM 34.0 °F - 24.1 °F 67% 30.22 in 10.0 mi Calm Calm - N/A   Overcast
1:53 AM 34.0 °F - 24.1 °F 67% 30.21 in 10.0 mi Calm Calm - N/A   Overcast
2:53 AM 34.0 °F - 24.1 °F 67% 30.20 in 10.0 mi Calm Calm - N/A   Overcast
3:53 AM 34.0 °F - 25.0 °F 70% 30.21 in 10.0 mi Calm Calm - N/A   Overcast
4:53 AM 33.1 °F 30.0 °F 25.0 °F 72% 30.21 in 10.0 mi SSE 3.5 mph - N/A   Overcast
5:53 AM 33.1 °F 27.7 °F 26.1 °F 75% 30.22 in 10.0 mi SW 5.8 mph - N/A   Overcast
6:53 AM 33.1 °F 30.0 °F 26.1 °F 75% 30.21 in 10.0 mi ESE 3.5 mph - N/A   Overcast
7:53 AM 33.1 °F 28.7 °F 26.1 °F 75% 30.22 in 10.0 mi ESE 4.6 mph - N/A   Overcast
8:53 AM 33.1 °F 28.7 °F 26.1 °F 75% 30.23 in 10.0 mi SSE 4.6 mph - N/A   Overcast
9:53 AM 34.0 °F 28.0 °F 27.0 °F 75% 30.24 in 10.0 mi SSE 6.9 mph - N/A   Overcast
10:53 AM 34.0 °F 28.0 °F 27.0 °F 75% 30.25 in 10.0 mi SSE 6.9 mph - N/A   Overcast
11:53 AM 35.1 °F 30.1 °F 28.0 °F 76% 30.25 in 10.0 mi SSE 5.8 mph - N/A   Overcast
12:53 PM 36.0 °F 31.1 °F 28.0 °F 73% 30.24 in 10.0 mi South 5.8 mph - N/A   Overcast
1:53 PM 36.0 °F 33.3 °F 28.9 °F 76% 30.24 in 9.0 mi ESE 3.5 mph - 0.00 in   Overcast
2:53 PM 36.0 °F 31.1 °F 28.9 °F 76% 30.24 in 10.0 mi SE 5.8 mph - N/A   Overcast
3:53 PM 36.0 °F 30.3 °F 30.0 °F 79% 30.23 in 10.0 mi ESE 6.9 mph - N/A   Overcast
4:18 PM 35.6 °F 29.9 °F 30.2 °F 81% 30.18 in 10.0 mi ESE 6.9 mph - N/A   Overcast
4:26 PM 35.6 °F 30.7 °F 30.2 °F 81% 30.18 in 10.0 mi SE 5.8 mph - N/A   Overcast
4:53 PM 35.1 °F 29.3 °F 30.0 °F 82% 30.23 in 10.0 mi ESE 6.9 mph - N/A   Overcast
5:53 PM 35.1 °F 30.1 °F 28.9 °F 78% 30.23 in 10.0 mi East 5.8 mph - N/A   Overcast
6:53 PM 34.0 °F 31.0 °F 30.9 °F 89% 30.24 in 7.0 mi ESE 3.5 mph - 0.00 in Snow Light Snow
7:12 PM 33.8 °F 29.6 °F 30.2 °F 87% 30.19 in 10.0 mi East 4.6 mph - 0.00 in   Overcast
7:25 PM 33.8 °F 29.6 °F 30.2 °F 87% 30.19 in 10.0 mi East 4.6 mph - 0.00 in   Overcast
7:53 PM 34.0 °F 29.8 °F 30.9 °F 89% 30.25 in 10.0 mi East 4.6 mph - 0.00 in   Overcast
8:53 PM 34.0 °F 29.8 °F 30.9 °F 89% 30.25 in 10.0 mi East 4.6 mph - N/A   Overcast
9:53 PM 34.0 °F 29.8 °F 30.9 °F 89% 30.26 in 9.0 mi ESE 4.6 mph - N/A   Overcast
10:53 PM 34.0 °F 29.8 °F 30.9 °F 89% 30.27 in 7.0 mi ESE 4.6 mph - N/A   Overcast
11:53 PM 34.0 °F 28.8 °F 30.9 °F 89% 30.26 in 7.0 mi ESE 5.8 mph - N/A   Overcast